Home   Weather   Charlotte Amalie   Past weeks
Flag for US Virgin Islands

Past Weather in Charlotte Amalie, US Virgin Islands — Yesterday and Last 2 Weeks

Now
81 °F

Passing clouds.


Feels Like: 86 °F
Forecast: 87 / 80 °F
Wind: 5 mph from Northeast

Location: Cyril E. King International Airport

Current Time: Oct 16, 2019 at 12:44:27 am

Latest Report: Oct 16, 2019 at 12:07 am


Visibility: 10 mi

Pressure: 29.97 "Hg

Humidity: 79%

Dew Point: 74 °F

Location of Charlotte AmalieLocation

Past Weather in Charlotte Amalie — Graph

°F

Charlotte Amalie Temperature Yesterday

Maximum temperature yesterday: 86 °F (at 9:53 am)
Minimum temperature yesterday: 79 °F (at 11:53 am)
Average temperature yesterday: 82 °F

High & Low Weather Summary for the Past Weeks

 TemperatureHumidityPressure
High91 °F (Oct 7, 11:53 am)85% (Oct 14, 11:53 pm)30.00 "Hg (Oct 14, 11:53 pm)
Low78 °F (Oct 10, 3:53 am)48% (Oct 10, 2:53 pm)29.82 "Hg (Oct 1, 3:53 am)
Average84 °F70%29.92 "Hg
* Reported Sep 30 10:53 pm — Oct 15 10:53 pm, Charlotte Amalie. Weather by CustomWeather, © 2019

Note: Actual official high and low records may vary slightly from our data, if they occured in-between our weather recording intervals... More about our weather records

Advertising

Charlotte Amalie Weather History for the Previous 24 Hours

Scroll right to see more
 ConditionsComfort  
Time TempWeatherWind HumidityBarometerVisibility
10:53 pm
Tue, Oct 15
80 °FClear.No wind79%29.97 "Hg10 mi
9:53 pm81 °FClear.3 mph79%29.97 "Hg10 mi
8:53 pm81 °FClear.No wind79%29.96 "Hg10 mi
7:53 pm82 °FClear.5 mph77%29.95 "Hg10 mi
6:53 pm82 °FClear.3 mph77%29.93 "Hg10 mi
5:53 pm83 °FPassing clouds.6 mph72%29.93 "Hg10 mi
4:53 pm85 °FScattered clouds.6 mph70%29.93 "Hg10 mi
3:53 pm86 °FLight rain. Scattered clouds.No wind67%29.92 "Hg10 mi
2:53 pm86 °FPassing clouds.6 mph65%29.92 "Hg10 mi
1:53 pm85 °FPassing clouds.No wind68%29.94 "Hg10 mi
12:53 pm83 °FPassing clouds.12 mph74%29.96 "Hg10 mi
11:53 am79 °FLight rain. Broken clouds.12 mph82%29.99 "Hg10 mi
10:53 am86 °FScattered clouds.6 mph65%29.99 "Hg10 mi
9:53 am86 °FScattered clouds.6 mph65%30.00 "Hg10 mi
8:53 am85 °FPassing clouds.9 mph70%29.99 "Hg10 mi
7:53 am84 °FPassing clouds.7 mph70%29.97 "Hg10 mi
6:53 am80 °FSunny.3 mph79%29.95 "Hg10 mi
4:53 am80 °FClear.5 mph79%29.94 "Hg10 mi
3:53 am80 °FClear.5 mph79%29.93 "Hg10 mi
2:53 am80 °FClear.3 mph79%29.93 "Hg10 mi
1:53 am80 °FClear.6 mph79%29.95 "Hg10 mi
12:53 am80 °FClear.7 mph81%29.97 "Hg10 mi
Weather by CustomWeather, © 2019

See weather overview